Flag for Somalia Weather past 2 weeks in Hargeisa, Somalia

Now
79 °F

Passing clouds.


Feels Like: 80 °F
Forecast: 66 / 77 °F
Wind: 5 mph from Northeast

Location: Aden

Current Time: Oct 21, 2014 at 5:38:03 AM

Latest Report: Oct 21, 2014 at 5:00 AM


Visibility: N/A

Pressure: 29.89 "Hg

Humidity: 51%

Dew point: 59 °F

Location of HargeisaLocation

Historic Weather in Hargeisa — Graph

°F

Hargeisa temperature yesterday

Maximum temperature yesterday: 90 °F (at 10:00 AM)
Minimum temperature yesterday: 84 °F (at 12:00 AM)
Average temperature yesterday: 86 °F

Past Weeks' High & Low Weather Summary

 TemperatureHumidityPressure
High93 °F (Oct 10, 12:00 PM)58% (Oct 10, 6:00 AM)29.98 "Hg (Oct 10, 6:00 AM)
Low77 °F (Oct 6, 11:00 PM)22% (Oct 18, 12:00 PM)29.77 "Hg (Oct 8, 3:00 PM)
Average86 °F41%29.87 "Hg
* Reported Oct 6 4:00 AM — Oct 21 4:00 AM, Hargeisa, Weather by CustomWeather, © 2014

Note: Actual official high and low records may vary slightly from our data, if they occured in-between our weather recording intervals... More about our weather records

Advertising

Hargeisa weather history for previous 24 hours

 ConditionsComfort  
Time TempWeatherWind HumidityBarometerVisibility
4:00 AM
Oct 21
79 °FPassing clouds.5 mph48%29.86 "HgN/A
3:00 AM79 °FPassing clouds.6 mph48%29.86 "HgN/A
2:00 AM81 °FPassing clouds.6 mph48%29.89 "HgN/A
1:00 AM82 °FPassing clouds.7 mph45%29.89 "HgN/A
12:00 AM84 °FPassing clouds.6 mph43%29.92 "HgN/A
11:00 PM
Oct 20
84 °FPassing clouds.12 mph40%29.92 "HgN/A
10:00 PM84 °FPassing clouds.13 mph43%29.92 "HgN/A
9:00 PM84 °FPassing clouds.18 mph43%29.92 "HgN/A
8:00 PM84 °FPassing clouds.13 mph40%29.89 "HgN/A
7:00 PM86 °FPassing clouds.14 mph40%29.83 "HgN/A
6:00 PM86 °FPassing clouds.13 mph40%29.83 "HgN/A
5:00 PM88 °FPassing clouds.15 mph40%29.83 "HgN/A
4:00 PM88 °FPassing clouds.14 mph35%29.80 "HgN/A
3:00 PM90 °FPassing clouds.17 mph31%29.80 "HgN/A
2:00 PM90 °FPassing clouds.16 mph31%29.83 "HgN/A
1:00 PM90 °FPassing clouds.18 mph33%29.86 "HgN/A
12:00 PM90 °FPassing clouds.18 mph31%29.89 "HgN/A
11:00 AM90 °FPassing clouds.18 mph29%29.92 "HgN/A
10:00 AM90 °FPassing clouds.17 mph27%29.95 "HgN/A
9:00 AM88 °FScattered clouds.16 mph33%29.95 "HgN/A
8:00 AM86 °FPartly sunny.15 mph38%29.92 "HgN/A
6:00 AM84 °FPartly sunny.16 mph37%29.89 "HgN/A
5:00 AM84 °FPassing clouds.14 mph43%29.86 "HgN/A
Weather by CustomWeather, © 2014

See weather overviewHow to use our weather pages